DELTA 1 DEB, 21289

Orbit data source: Space-Track

DELTA 1 DEB, 21289 is space debris in SSO originally from a launch on Thu, 12 Jun 1975 UTC launched from the Air Force Western Test Range (AFWTR). Debris objects in space refer to the collection of defunct objects orbiting the Earth. Examples of debris include non-operational satellites, rocket bodies, and fragments generated from explosions, collisions, or faulty payload assembly.

Loading next visibility...
Identifier
21289, 1975-052AA
Orbit
SSO
Country
Flag of USUS
Related business
Manufacturer
Unknown
Mission
Spacecraft
Bus & Motor
Unknown
Mass
Unknown
Launch date (UTC)
1975-06-12 (51 years ago)
Launch vehicle
Unknown
Launch site
Air Force Western Test Range (AFWTR)
Object type
Payload
Rocket body
Debris
Shape & HBR
Unknown shape, 0.1 m
Radar Cross Section
Medium (>0.1 m² and <1 m²)

Expand to show TLE details & history
Last TLE update: 2 days ago

TLE from 2 days ago
0 DELTA 1 DEB
1 21289U 75052AA  26171.46180866 -.00000215  00000-0 -50475-3 0  9991
2 21289  99.8959 157.3527 0246503   2.4010 116.6945 13.00087958664975
Epoch: 2026-06-20T11:05Z
TLE epoch observation values (Epoch: 2026-06-20T11:05:00.268Z)
Latitude
57.14897°
Longitude
-81.97973°
Altitude
1,359.478 km
Speed
7.142 km/s
True Right ascension
23h 31m 47s
True Declination
57° 00' 15"
Sunlit
Object was in daylight at epoch
Visualization orbit readout
Latitude
Unknown
Longitude
Unknown
Altitude
Unknown
Speed
Unknown
Apparent Right ascension
Unknown
Apparent Declination
Unknown
Sunlit
N/A
Visualization observer readout
Local Sidereal Time
14:40:13
Azimuth
Unknown
Elevation
Unknown
Doppler factor
Unknown
Orbital elements
Apogee altitude
1,447.382 km
Perigee altitude
1,070.861 km
Semi-major axis
7,637.259 km
Eccentricity
0.02465
Inclination
99.8959°
RAAN
157.3527°
Arg. of periapsis
2.401°
True anomaly
119.18289°
Mean anomaly
116.6945°
Eccentric anomaly
117.94221°
Mean motion
3.2519 °/min
Orbital period
110.7 mins
BSTAR
-0.00050475
Loading maneuver chart data...
Computing Atmospheric mass density...
Loading historical data...
Loading historical data...
Loading historical data...
Loading historical data...
Loading historical data...
Loading historical data...
Loading historical data...

Documentation

Showing up to 5 results
|